Theta_e
346 340 331 326 322 316 313 313 314 315 316 319 320 319 317 316 316 316 318 321 325 329 331 333 334 334 334 334 333 333 333 335 336 336 336 336 336 336 336 336 337 337 337 337 336 333 332 330 327 323 319 319 323 319 312 308 310 313 314 312 312 315 319 321 320 320 319 319 320 322 322 319 317 315 313 313 312 312 311 311 312 312 312 312 312
344 338 331 326 322 316 313 314 314 315 317 319 320 319 317 316 316 317 319 322 329 333 334 335 335 334 334 334 333 333 333 335 336 336 337 337 336 336 336 336 337 337 336 336 335 333 331 330 327 322 318 316 318 319 313 308 308 310 311 310 312 314 316 316 316 316 317 319 320 320 318 315 313 312 312 312 312 311 311 312 311 312 312 313 313
344 337 330 326 321 315 313 314 314 315 317 319 320 319 317 316 316 317 320 326 332 334 334 335 334 335 335 334 334 334 334 335 336 336 337 337 337 336 336 337 336 336 336 335 334 332 330 328 326 320 316 315 316 318 312 308 308 308 309 310 312 313 314 314 315 316 317 317 317 316 314 312 312 312 312 311 311 311 311 311 311 312 313 313 313
344 336 330 326 319 315 313 313 315 316 318 320 320 318 318 317 317 318 322 329 333 332 333 334 334 335 335 335 335 335 335 336 336 336 336 337 337 336 337 337 337 337 336 335 334 333 329 324 322 318 315 317 318 316 311 307 307 308 310 312 314 315 316 316 316 316 315 314 314 313 312 312 311 311 311 311 311 311 311 311 312 313 314 314 314
345 337 332 326 319 314 313 314 314 316 318 320 320 319 318 317 317 318 324 330 331 331 333 334 335 335 335 335 335 336 336 336 336 336 336 337 337 336 336 337 337 337 336 336 335 335 330 320 317 316 317 318 317 313 308 307 309 311 314 317 320 322 322 322 322 320 318 316 313 312 313 312 311 311 311 311 311 311 312 312 313 314 314 314 314
345 338 331 325 319 314 313 314 314 316 318 320 320 319 318 318 317 318 324 328 329 331 333 334 335 335 335 335 336 336 336 336 337 337 337 337 338 337 336 336 336 336 335 336 335 333 325 316 316 318 319 318 314 310 307 309 313 316 319 324 327 328 329 330 329 328 327 324 318 314 315 313 310 311 311 311 312 312 313 313 314 314 314 314 314
343 336 330 323 318 314 313 313 314 316 319 321 320 319 318 318 317 318 323 327 330 333 334 335 335 335 335 335 335 336 336 336 336 337 337 337 337 337 336 335 334 334 333 333 330 324 317 315 318 318 317 315 311 307 307 312 318 321 325 328 330 331 332 332 332 332 332 330 323 318 317 314 310 311 312 313 313 313 314 314 314 314 314 314 314
341 334 329 323 317 313 313 313 315 316 319 321 321 320 318 318 317 319 324 328 331 334 334 335 335 335 335 335 335 336 336 336 336 336 336 336 336 336 335 333 332 331 329 326 321 315 315 317 318 316 313 311 308 307 307 314 321 324 328 330 331 332 333 333 333 333 333 331 325 319 317 313 311 312 312 313 313 314 314 314 314 314 314 314 313
338 332 329 323 316 313 313 313 315 316 319 321 322 321 319 318 318 321 327 331 333 334 335 335 335 335 336 335 336 336 336 336 335 335 335 335 335 334 333 331 331 329 322 316 314 314 317 318 316 313 311 309 308 307 308 316 322 325 329 331 332 332 333 333 333 334 333 332 326 321 317 313 311 312 312 313 313 313 313 313 313 313 313 313 313
336 331 329 323 316 313 312 313 315 316 319 321 323 322 321 320 321 325 329 333 334 335 335 335 335 335 336 336 336 335 335 334 334 334 334 334 333 332 331 330 329 323 314 309 312 316 317 316 314 312 311 309 308 307 308 315 322 326 329 330 332 332 332 332 332 333 332 331 327 322 316 312 312 312 312 313 312 313 313 313 313 313 312 313 312
334 332 329 323 316 313 313 314 315 317 318 321 323 325 324 324 326 329 332 334 335 335 335 334 334 335 336 336 335 334 334 333 333 333 332 332 330 329 326 325 321 314 308 308 313 316 316 315 314 313 311 309 308 308 308 314 321 325 328 330 331 331 332 331 331 331 331 330 327 321 315 312 312 312 312 312 312 313 313 313 313 312 312 313 313
333 332 328 323 317 313 312 313 315 317 318 320 323 325 327 328 329 331 332 334 335 336 335 334 334 334 335 334 333 333 332 332 331 330 329 327 325 322 319 317 312 308 308 310 314 316 315 314 314 312 311 310 309 308 308 313 319 323 327 329 330 331 332 331 332 332 333 332 327 323 317 312 312 312 312 312 312 312 312 312 312 312 313 313 314
334 333 329 324 318 314 312 313 316 317 319 320 322 325 328 329 330 331 332 334 336 336 334 334 334 334 333 333 333 332 331 329 327 325 322 319 317 314 312 311 309 308 308 312 315 315 314 314 314 312 311 310 309 308 308 311 316 321 324 327 330 331 331 330 331 331 333 332 329 326 318 311 312 312 312 312 312 312 312 312 312 313 314 315 315
336 334 330 325 320 316 312 313 315 317 318 319 320 324 328 329 330 331 332 334 335 335 333 333 333 333 332 332 331 330 328 325 322 319 316 313 312 310 309 308 308 308 309 313 315 313 313 313 313 312 311 311 310 309 309 310 314 320 324 329 331 331 329 328 329 331 333 333 330 328 321 314 313 312 312 312 311 312 312 312 313 314 315 315 315
341 337 331 326 322 317 313 312 314 316 317 318 319 323 327 329 331 331 332 333 334 334 332 332 332 332 331 330 329 327 324 321 318 314 312 311 309 309 308 308 308 308 310 314 314 313 313 312 313 312 311 311 311 310 310 311 313 319 325 329 329 329 329 329 331 332 332 331 329 328 325 320 316 312 312 312 311 312 311 313 314 315 315 315 315
343 341 334 327 324 321 316 313 313 315 317 319 319 322 327 330 331 331 331 332 333 333 332 332 332 331 330 328 326 324 321 318 316 313 311 309 309 309 308 308 308 308 310 314 314 313 313 312 312 312 311 312 311 311 311 312 315 320 325 327 327 328 329 329 329 330 330 330 330 328 328 326 320 314 312 312 312 312 312 314 315 315 315 315 315
342 340 335 329 326 324 320 314 313 315 317 320 320 323 327 330 331 331 331 331 332 332 332 331 330 329 327 324 322 321 320 319 318 316 313 311 309 309 309 308 308 308 309 313 315 313 313 312 312 312 312 311 311 312 311 312 314 317 321 325 327 328 328 329 328 329 331 331 330 327 327 327 323 317 312 311 312 312 313 314 315 315 315 316 316
340 337 334 330 328 326 324 317 313 314 317 319 322 324 326 329 330 330 330 330 332 332 331 329 328 327 325 322 320 321 320 319 319 317 316 313 311 310 309 309 308 308 308 311 315 315 314 313 313 313 312 312 312 312 312 312 312 313 316 321 324 326 327 328 327 327 328 327 327 325 324 325 321 316 312 312 312 312 313 314 315 315 316 317 317
337 335 333 331 329 329 327 322 316 314 315 317 321 325 327 328 328 329 329 330 331 331 329 327 324 322 321 319 320 322 323 322 321 318 317 315 313 312 311 310 309 308 308 309 314 316 316 315 314 314 313 313 312 312 313 312 312 312 313 316 318 321 325 329 330 328 327 328 329 328 328 325 319 315 313 313 313 314 315 315 316 316 316 317 317
336 335 334 332 331 331 330 326 322 317 314 315 319 324 327 328 327 327 328 330 330 328 325 322 321 321 321 322 323 325 328 330 325 318 317 317 315 314 313 311 311 309 309 308 310 315 318 317 316 315 315 314 314 314 314 313 314 313 313 314 315 319 325 330 331 330 330 331 332 330 329 327 325 323 319 315 316 317 317 317 317 317 317 317 317
335 336 334 334 333 333 332 330 327 322 316 315 318 322 328 328 326 327 328 328 327 323 320 319 321 323 327 330 329 327 326 328 327 322 319 317 315 314 314 314 313 312 310 309 308 311 315 318 318 317 317 316 316 316 315 315 316 316 315 316 315 317 320 323 326 330 331 331 331 330 330 330 331 331 325 317 317 318 318 318 318 317 317 317 317
336 336 336 337 335 334 333 332 330 326 319 316 317 319 324 325 326 328 327 325 323 321 321 320 322 326 329 329 327 323 319 319 322 322 320 318 317 316 315 315 315 315 314 312 310 309 310 313 316 317 318 317 316 318 321 321 321 322 321 321 320 319 319 321 325 329 331 331 331 331 331 332 332 332 327 320 318 318 319 318 318 318 318 318 318
339 340 340 340 337 335 335 334 333 331 326 320 316 315 318 322 325 327 326 325 326 327 329 328 328 331 330 323 321 321 319 320 323 324 324 326 327 326 322 319 317 316 316 317 317 315 313 311 312 313 313 316 319 323 327 328 328 329 330 329 327 326 327 327 325 326 330 331 331 332 331 332 332 332 331 327 321 319 320 320 321 321 321 321 321
343 343 342 342 339 338 338 337 337 336 332 324 317 315 316 321 326 327 326 329 331 332 336 336 333 331 325 319 320 325 325 327 331 331 331 332 332 332 330 327 323 319 319 319 320 323 324 323 321 316 312 316 326 329 329 330 330 332 333 332 331 331 331 331 328 327 331 332 332 333 331 332 332 332 332 331 327 324 323 323 322 322 322 323 324
344 343 343 343 341 341 340 340 339 338 333 325 318 316 318 324 328 326 327 333 335 334 337 336 332 325 320 322 327 331 331 332 334 333 334 333 331 333 332 331 330 328 326 323 321 325 329 331 331 329 323 323 328 330 330 330 329 331 332 330 331 333 332 333 332 331 332 333 333 333 332 332 333 333 333 332 331 330 328 326 325 324 323 323 324
344 344 344 343 342 342 341 341 339 336 333 325 318 317 321 327 329 328 329 334 335 335 335 334 330 322 321 328 333 334 334 334 334 334 334 332 331 333 332 332 332 332 331 330 328 326 329 332 332 333 333 330 329 329 331 332 330 330 330 328 330 331 332 333 334 334 333 333 333 333 333 333 333 334 332 332 333 333 332 331 329 328 326 324 324
344 343 343 343 342 341 340 339 337 334 333 328 323 323 325 327 327 328 330 332 333 334 334 333 329 323 326 332 333 334 334 335 334 334 334 333 332 332 331 332 332 332 332 333 333 330 330 332 332 333 333 332 330 329 330 331 331 332 331 331 331 331 331 332 333 333 333 332 333 332 333 333 333 332 331 332 333 334 334 334 333 330 328 326 325
344 343 343 343 342 340 339 338 336 334 333 331 331 332 332 331 330 331 332 334 335 335 334 332 327 326 331 334 333 335 335 335 335 334 334 334 333 332 331 332 332 333 332 334 334 333 333 333 333 333 332 332 332 332 331 331 332 332 332 333 332 332 332 332 332 332 331 331 332 332 332 332 332 331 332 332 333 334 334 334 334 332 331 329 327
343 342 342 342 340 339 338 336 336 336 334 333 334 336 336 335 335 335 335 335 336 336 335 332 330 331 334 334 334 335 334 334 334 334 334 334 333 332 332 333 333 332 332 334 334 334 334 333 333 333 333 332 333 333 332 331 332 332 333 333 333 333 333 333 332 332 332 332 332 333 332 332 332 332 332 332 333 333 334 334 334 334 332 330 329
342 341 340 340 339 338 337 335 335 336 334 334 335 336 336 335 335 335 336 335 335 336 335 334 335 335 335 335 334 333 334 334 334 334 334 335 335 334 333 333 333 332 333 334 334 333 333 333 334 334 333 333 333 333 332 332 332 333 333 333 333 333 333 332 332 332 332 333 333 333 333 333 333 333 332 333 333 333 333 333 333 333 332 331 330
340 340 339 338 337 337 336 335 334 335 334 334 336 335 334 333 332 333 332 332 333 336 336 336 338 336 335 335 334 333 334 334 334 334 336 336 335 335 334 333 333 333 332 333 332 332 332 333 334 334 333 333 334 334 333 333 332 332 333 333 333 332 333 332 331 332 333 332 332 332 332 333 333 333 333 333 333 333 333 333 333 332 332 332 332
338 338 338 337 336 335 335 335 334 334 334 335 336 334 332 332 331 331 330 330 333 336 337 337 337 336 336 335 334 334 334 334 334 335 336 335 333 333 333 333 333 333 332 332 332 332 332 333 333 333 333 333 333 334 334 333 332 332 333 333 333 333 334 333 332 333 333 333 333 333 333 333 333 333 334 334 334 333 333 332 332 332 331 332 332
337 337 337 337 335 334 335 334 332 331 333 334 332 331 332 333 333 334 333 333 334 335 336 337 336 336 336 335 335 334 333 333 333 334 335 334 333 333 333 332 332 332 332 332 332 332 332 333 333 333 333 333 333 334 333 333 333 333 333 333 333 333 333 333 332 332 333 333 333 332 332 332 332 332 333 334 334 333 333 332 332 333 333 333 333
337 336 335 335 334 335 334 331 330 332 333 333 332 333 334 334 334 334 333 333 334 333 333 335 336 336 336 336 335 334 333 333 332 332 333 333 332 332 332 332 332 332 333 333 332 332 332 332 332 332 333 333 332 332 332 332 332 333 333 333 332 332 331 331 330 330 330 331 331 331 330 331 331 331 332 332 332 332 332 332 332 332 332 333 332
336 335 333 332 333 334 333 330 332 334 334 335 335 336 336 336 335 333 332 333 335 334 332 332 333 335 336 336 335 335 335 334 333 332 332 332 333 332 332 332 332 333 332 332 332 332 331 331 331 332 332 331 331 331 332 333 333 333 332 332 331 330 328 328 328 329 329 330 331 331 331 331 331 331 331 331 331 331 331 331 331 331 331 332 332
336 335 331 329 332 334 334 333 334 335 335 336 336 336 337 336 335 334 334 334 335 334 333 334 333 333 333 335 336 335 335 335 335 334 334 334 333 333 332 332 332 332 331 331 330 330 330 330 330 330 330 330 331 331 332 333 333 332 331 330 328 327 326 328 329 329 330 331 331 332 331 330 331 331 331 331 331 331 331 331 331 331 331 331 331
335 334 330 330 333 334 335 335 335 336 337 337 336 336 336 335 334 334 335 335 334 332 333 333 333 332 331 333 336 336 336 336 335 334 335 333 332 333 332 332 333 332 332 332 331 331 331 330 330 330 330 330 331 331 331 331 330 329 329 328 326 326 327 328 329 330 331 331 332 332 331 330 331 332 332 332 331 331 330 331 331 331 331 331 330
335 333 333 334 335 335 335 336 336 336 336 336 336 336 335 335 333 333 334 334 331 330 331 331 332 333 332 333 336 336 336 336 334 333 333 332 333 334 333 333 333 333 332 332 332 332 331 331 330 330 330 330 331 331 330 329 328 328 327 326 324 325 327 329 330 331 332 332 332 331 331 331 331 331 332 332 331 331 331 331 331 331 332 331 331
335 333 335 337 336 335 336 336 336 335 335 336 335 334 333 334 333 332 332 330 328 329 330 329 331 333 333 335 336 335 335 335 334 333 333 333 334 334 333 333 333 332 332 332 331 331 330 330 330 330 330 331 331 331 330 329 327 327 326 324 325 326 327 330 331 331 332 333 333 332 332 332 332 331 331 331 331 331 331 331 332 332 331 331 331
336 334 336 337 336 336 336 336 335 335 335 335 334 332 330 332 331 329 329 329 330 331 332 331 330 331 334 336 335 334 335 335 335 334 333 333 333 334 334 333 333 332 331 331 330 330 329 330 330 330 330 330 331 330 329 327 325 324 324 324 325 325 328 330 331 333 333 333 332 332 333 333 332 332 331 331 331 330 331 331 331 331 331 331 330
335 334 336 336 336 336 336 335 335 335 334 332 331 330 329 329 327 326 329 331 330 329 330 330 330 332 335 336 335 335 335 335 335 334 334 334 333 333 333 333 332 331 331 330 330 330 330 330 330 330 330 329 329 328 327 326 324 321 320 321 322 324 329 331 331 333 332 331 331 331 331 332 332 332 332 331 330 330 331 331 330 330 331 331 330
335 335 335 335 336 336 336 335 335 334 332 330 329 330 329 328 328 329 330 330 328 326 327 330 332 334 335 335 335 335 334 334 334 333 334 334 333 332 332 333 332 331 331 330 330 330 330 329 328 329 329 327 326 325 324 322 321 320 318 316 316 321 328 332 333 333 328 328 331 330 328 329 330 330 330 330 330 329 329 329 330 330 330 330 330
335 335 334 335 336 336 335 334 333 332 330 331 331 330 327 328 332 331 330 330 329 329 330 332 335 335 334 333 333 333 333 333 333 333 333 333 333 332 332 331 331 331 330 329 328 327 327 326 324 324 323 321 321 320 320 319 319 319 318 318 318 319 321 325 330 330 324 323 327 328 325 325 328 329 329 329 329 328 328 328 328 328 327 328 328
334 334 333 336 336 335 334 333 333 330 328 331 333 330 327 329 331 330 332 332 331 332 333 334 334 334 333 331 330 330 331 330 330 331 331 332 332 331 330 330 330 328 326 324 322 320 319 319 318 317 314 314 314 314 316 317 317 317 317 318 320 322 321 319 319 320 319 318 320 322 321 320 322 326 328 329 329 328 327 328 328 326 325 325 327
334 334 335 337 335 335 333 333 333 330 329 331 333 330 328 328 329 330 332 333 332 333 332 332 332 331 331 330 329 329 327 327 328 328 328 329 329 329 329 328 326 323 320 317 315 314 314 313 313 312 312 312 311 311 312 313 316 318 318 318 319 320 320 319 317 315 316 315 316 316 316 316 316 319 322 324 326 327 327 327 325 324 324 324 325
335 336 337 336 335 334 333 332 332 330 330 330 329 330 330 329 330 331 332 331 331 331 330 331 331 331 329 328 327 327 326 325 325 325 325 325 325 324 323 321 318 315 314 313 312 311 311 311 311 310 310 310 309 309 309 309 311 313 316 317 318 318 318 318 317 315 313 312 312 311 310 310 310 309 311 313 315 317 319 321 321 322 323 324 324
335 337 337 335 335 334 332 331 331 329 328 327 326 329 330 331 332 331 331 331 331 331 331 331 331 330 328 327 326 325 325 324 323 322 322 321 319 317 316 314 312 312 311 311 310 310 310 310 310 309 309 309 308 307 306 306 306 306 310 313 314 314 315 315 312 311 311 308 307 306 305 304 303 304 304 305 305 308 313 317 319 319 320 322 322
336 336 336 335 334 333 333 332 331 330 330 329 329 330 331 332 333 332 332 332 332 332 331 331 330 329 328 327 325 324 324 322 320 319 317 315 314 312 312 311 311 311 310 310 309 309 309 309 308 307 306 305 304 303 302 302 302 302 304 306 307 308 310 309 307 307 308 306 303 303 302 301 301 302 302 300 301 309 315 316 315 316 316 316 318
335 336 335 335 333 333 333 333 333 333 332 331 332 333 333 334 334 334 333 333 332 332 331 330 329 328 327 327 324 321 320 319 316 315 313 312 312 311 311 310 310 309 309 309 308 308 307 306 304 303 302 302 301 301 300 300 300 301 303 306 308 309 309 306 305 308 309 308 307 305 303 300 300 301 301 299 299 304 310 312 313 314 311 311 314
335 335 335 334 334 334 334 334 334 333 333 333 333 333 333 333 334 333 333 333 332 331 330 329 327 327 325 325 322 317 315 314 312 312 311 311 310 310 310 309 309 308 307 307 306 305 304 302 301 300 300 300 300 299 299 299 299 301 305 308 309 310 309 306 306 309 309 308 307 304 300 299 300 300 299 299 299 299 303 307 308 307 305 305 307
335 335 334 334 334 334 334 333 333 333 333 333 332 332 331 331 331 331 331 330 330 329 328 327 326 325 323 321 318 314 312 312 311 310 310 310 309 309 308 308 307 305 304 303 302 302 301 300 300 299 299 299 299 299 298 299 299 302 306 308 309 310 308 305 305 306 307 304 304 303 299 298 299 298 298 298 298 299 300 300 299 299 299 299 300
Wind_Speed
14 13 11 10 9 8 8 10 11 12 13 13 14 13 14 16 17 18 18 19 19 19 18 17 16 16 15 15 14 13 13 13 14 14 15 14 13 13 13 13 12 12 11 11 11 11 11 11 11 11 11 11 11 11 11 11 10 10 11 13 14 15 15 15 14 13 13 13 13 12 11 12 11 11 12 13 14 15 14 13 12 12 13 14 14
17 16 13 12 10 9 9 11 12 12 13 14 15 14 14 15 17 18 19 19 18 17 16 16 16 16 15 15 14 13 13 13 14 14 14 13 13 12 12 12 12 11 10 10 10 10 10 10 11 11 11 10 10 10 11 12 12 12 13 14 15 17 17 17 17 17 17 16 14 12 12 11 11 12 13 13 14 13 13 13 12 12 13 13 13
17 17 15 14 12 11 11 11 12 12 13 14 15 15 14 15 17 18 19 18 17 16 15 15 16 15 15 14 13 13 13 13 13 13 13 12 12 12 12 12 11 10 9 10 9 9 10 11 10 10 10 10 10 10 12 13 13 13 15 17 18 20 20 20 19 19 18 16 15 14 12 11 11 12 12 12 12 12 12 12 11 12 12 12 12
16 18 17 15 13 13 12 12 13 13 14 15 16 15 15 15 17 18 18 17 16 15 15 15 15 15 14 13 12 12 12 12 12 12 12 12 12 12 11 11 11 10 9 9 9 9 10 11 10 10 10 10 10 11 12 13 14 15 18 20 21 22 22 21 20 19 18 17 16 15 13 11 10 10 11 11 12 12 12 11 10 11 11 11 12
16 18 17 16 15 14 14 13 13 14 14 15 16 16 15 16 17 17 17 16 16 15 15 15 15 14 13 12 12 12 12 12 12 12 12 11 12 12 11 11 10 10 9 9 9 9 10 10 9 10 10 10 11 12 13 14 16 20 22 24 24 24 23 22 20 18 17 16 16 15 14 11 9 9 10 10 11 11 11 10 10 10 11 11 11
16 18 18 17 16 16 15 14 14 14 15 16 16 16 16 16 17 17 16 16 16 15 15 14 14 13 12 12 12 11 11 11 12 11 11 11 11 11 10 10 10 9 8 8 8 8 9 9 9 10 10 10 12 13 14 16 21 24 25 26 26 24 23 21 20 18 16 14 14 14 14 12 8 9 9 10 10 10 10 10 9 10 10 10 10
16 19 18 17 17 17 16 15 15 14 15 16 17 17 17 17 17 16 16 16 16 15 14 14 13 12 12 11 11 11 11 11 11 11 10 10 11 10 9 9 8 8 7 6 7 8 8 9 10 10 10 11 12 14 16 19 23 26 26 26 25 23 22 21 19 17 14 12 12 13 14 12 8 8 9 9 9 9 9 9 8 8 9 9 9
17 19 19 17 18 18 17 16 15 15 16 16 17 17 17 17 17 17 16 16 16 15 14 13 12 12 11 11 11 11 10 10 10 10 10 10 9 9 8 7 7 7 7 6 7 7 8 9 10 10 10 11 13 15 17 20 23 25 26 25 24 23 22 20 18 15 12 10 10 12 13 11 9 8 8 8 8 8 7 8 7 8 8 9 10
19 20 19 18 19 19 18 16 16 16 16 17 18 18 18 18 17 17 16 16 15 14 14 13 12 11 10 10 10 10 10 9 9 9 8 8 8 7 7 6 6 7 7 7 7 7 8 9 10 10 10 11 13 15 18 21 23 24 25 24 23 22 20 19 16 14 11 9 9 10 10 10 9 8 7 6 6 6 6 6 7 7 8 9 10
21 21 19 18 19 20 19 17 16 16 16 18 18 19 18 18 18 17 16 16 15 14 13 12 11 11 10 9 9 9 8 8 8 7 7 7 6 6 5 5 6 7 7 7 7 7 7 9 10 10 11 11 12 15 18 20 22 23 24 23 22 20 19 17 15 13 11 8 6 6 7 9 8 7 6 5 5 5 5 5 6 7 7 8 8
23 22 20 19 20 20 20 18 17 16 16 17 18 19 19 18 18 17 16 15 14 13 12 11 11 10 9 8 8 8 7 7 7 7 6 6 5 5 5 5 6 6 6 6 6 7 8 9 10 11 11 11 12 15 17 20 21 22 22 21 20 19 18 17 15 14 11 6 3 4 7 7 6 6 5 5 5 4 4 5 6 6 6 7 8
24 21 20 19 21 21 20 19 18 17 16 17 17 18 18 18 17 17 16 15 14 13 12 11 10 9 9 7 7 7 7 6 6 6 5 5 5 5 5 5 6 6 5 5 6 7 8 9 10 11 11 11 13 14 17 18 20 20 19 19 19 19 17 15 14 13 10 4 3 5 6 5 5 5 5 5 5 5 5 5 5 5 6 7 8
23 20 20 19 20 21 20 19 18 17 16 17 17 19 19 18 17 16 16 15 14 12 11 10 9 8 7 6 6 6 6 5 5 5 4 4 4 4 5 5 5 5 4 5 6 7 8 10 11 11 12 12 13 14 15 16 17 18 17 18 18 17 16 15 14 11 7 2 3 5 5 4 5 5 5 5 5 5 5 5 5 5 6 7 9
19 19 19 18 20 20 20 19 18 18 17 17 18 19 19 18 17 16 16 15 13 12 11 9 8 7 6 6 5 5 4 4 4 4 4 4 5 5 5 5 5 5 4 5 6 7 8 10 11 11 12 13 13 14 14 14 15 16 16 17 16 15 15 14 13 11 6 1 4 5 4 4 5 5 5 5 6 6 5 5 5 5 7 8 10
15 18 18 18 19 20 19 18 18 18 17 16 17 19 18 18 17 16 15 14 13 11 10 9 8 7 6 5 4 4 4 4 5 5 5 5 6 6 6 6 6 5 4 4 5 7 8 9 10 11 12 14 14 13 13 13 13 14 15 16 15 14 14 13 12 10 4 1 5 7 5 5 6 6 6 6 7 7 6 5 6 6 7 9 11
13 16 19 19 19 20 19 18 18 17 17 16 17 19 18 18 17 16 15 13 12 11 10 8 7 6 5 4 3 4 4 5 6 6 6 6 7 7 7 6 6 5 3 4 5 6 7 9 10 10 12 13 13 13 12 12 13 14 14 14 13 13 12 11 11 9 3 2 5 7 6 7 8 8 8 8 8 8 7 7 7 8 9 10 11
13 17 21 20 19 20 19 18 18 17 17 17 18 19 18 18 17 16 14 13 12 11 9 8 7 6 4 4 4 4 5 6 6 7 7 7 8 8 8 7 7 5 4 3 4 5 6 7 9 9 10 12 12 12 11 11 11 12 11 11 11 11 11 9 9 7 2 2 5 8 8 9 10 11 10 8 8 8 8 8 9 10 10 10 10
14 20 23 21 20 20 19 19 19 18 18 18 18 18 18 18 17 15 14 12 11 10 9 7 6 4 4 4 4 5 5 6 7 7 8 8 8 8 8 8 7 6 4 3 3 3 5 6 7 8 9 10 10 11 10 9 8 8 8 8 9 9 9 7 7 5 2 2 6 10 10 11 12 12 10 9 9 9 11 11 11 11 10 10 9
19 23 23 21 20 20 20 19 19 18 17 18 18 18 18 17 16 15 13 12 10 9 8 7 6 5 6 6 6 6 6 6 7 7 8 8 8 7 7 8 8 7 6 4 3 2 3 4 5 6 7 8 8 9 8 8 7 7 6 6 6 6 7 6 5 3 2 2 8 12 11 13 12 12 11 10 10 10 12 13 12 12 11 10 10
22 24 21 20 19 19 19 18 17 16 16 17 18 18 17 16 15 14 12 11 9 9 8 8 8 9 9 8 7 6 5 5 6 7 7 7 7 7 7 8 8 8 7 6 4 3 2 2 3 4 4 5 6 6 6 6 6 5 4 4 3 3 5 5 4 3 0 4 9 12 13 14 12 14 14 12 12 11 11 12 12 12 12 12 12
24 23 20 19 18 18 18 17 17 16 16 16 17 18 17 16 15 14 13 11 10 11 10 10 10 10 9 7 6 4 4 4 5 6 6 6 7 7 6 7 8 8 8 7 5 4 2 2 2 2 2 3 4 6 5 5 5 5 4 2 0 1 1 1 2 2 2 5 8 11 13 14 14 16 16 13 12 12 12 13 13 13 13 14 14
24 23 18 17 17 18 18 17 17 16 16 16 17 17 16 16 15 15 14 13 13 13 12 11 10 8 6 6 5 4 5 6 6 5 5 6 7 7 6 6 6 7 8 8 7 6 4 2 1 1 1 1 2 3 4 5 5 5 4 4 4 4 4 3 3 3 3 5 7 10 13 14 16 17 16 14 14 13 13 13 13 14 14 15 16
25 23 18 15 16 18 17 17 16 14 15 15 16 15 15 15 15 15 15 15 14 13 12 10 8 6 5 5 5 5 6 6 5 5 4 5 6 6 5 5 5 6 7 8 8 8 7 5 2 0 1 1 0 0 1 2 3 5 6 6 7 8 7 5 2 1 3 7 9 12 14 15 17 17 18 17 15 14 13 13 14 14 15 15 16
27 25 20 16 17 18 16 16 15 13 13 15 15 15 15 15 15 15 15 15 13 11 10 8 7 6 6 6 5 4 5 4 4 3 3 4 5 5 4 4 4 4 4 6 8 8 9 9 8 5 2 1 1 3 2 2 2 4 7 8 9 10 9 9 7 5 5 9 12 14 15 16 18 19 19 18 16 15 15 15 16 16 16 16 16
29 25 22 19 18 17 15 15 13 12 12 14 15 15 16 15 15 14 14 13 11 10 9 7 7 6 8 6 5 4 3 2 2 2 3 3 3 3 2 4 3 3 3 3 5 6 8 8 8 7 6 4 4 5 6 7 6 8 10 10 9 9 9 10 10 8 9 11 12 14 16 17 18 19 18 19 18 18 17 18 18 18 18 17 17
28 25 22 20 19 17 15 14 13 12 10 13 14 15 16 15 15 13 12 10 8 7 6 6 5 6 7 4 4 4 3 1 0 1 2 2 3 3 2 4 2 1 3 3 3 3 5 5 5 6 6 5 5 6 6 8 10 11 13 12 11 11 9 8 7 7 10 11 11 12 15 16 18 18 19 19 19 20 19 19 19 19 19 19 17
24 24 22 20 19 18 16 14 13 13 11 12 14 15 14 12 11 11 9 7 5 4 4 4 4 5 5 3 3 3 2 2 1 0 1 2 3 3 2 3 2 2 3 3 3 3 3 2 3 4 3 3 4 5 5 7 9 11 13 13 12 13 12 10 9 10 12 13 15 15 16 17 18 20 20 19 19 20 20 20 20 20 20 20 19
20 21 21 19 19 18 17 14 12 12 11 13 15 14 12 9 8 8 7 4 2 2 4 4 4 5 4 3 3 3 1 1 1 0 1 2 3 2 2 3 1 2 2 2 2 1 2 3 4 3 3 4 4 5 6 7 7 9 11 12 13 13 13 13 13 14 15 16 17 18 19 20 20 21 21 21 20 21 20 20 20 20 20 21 20
19 19 19 20 19 18 17 15 14 11 10 13 13 12 10 8 8 6 5 4 5 5 7 5 3 5 3 3 4 2 1 0 1 1 2 2 2 2 2 2 1 2 1 1 1 1 2 3 3 3 4 6 6 7 8 8 9 10 11 12 13 13 13 14 14 14 15 16 17 17 19 20 21 22 22 22 22 22 21 22 22 21 22 22 22
17 16 18 20 20 19 18 17 18 15 13 13 12 12 11 11 11 9 7 8 9 9 10 7 4 4 2 3 3 2 1 1 2 2 3 3 3 2 2 2 2 2 1 2 2 1 2 3 4 4 5 7 7 9 10 10 11 12 12 12 13 12 12 14 15 13 13 15 16 17 18 20 21 22 23 23 23 24 24 24 23 23 23 22 23
17 16 19 20 19 19 18 18 19 18 18 16 14 14 13 15 15 14 11 10 11 12 12 8 5 4 3 2 2 2 1 1 1 1 2 4 2 1 1 1 1 1 1 1 1 1 1 2 3 4 4 5 5 6 7 9 10 11 12 13 14 15 15 15 15 14 14 16 17 18 19 20 22 23 24 24 24 25 25 25 24 23 23 22 22
17 18 19 17 16 17 17 17 20 21 20 17 16 15 13 14 14 13 12 11 10 10 9 6 4 3 2 2 2 3 3 2 2 3 3 3 3 2 1 1 1 1 1 2 2 2 2 2 3 4 5 5 4 4 6 8 9 10 11 12 13 15 15 16 17 16 16 18 20 21 21 22 23 25 25 24 25 26 26 25 25 24 24 23 22
17 17 16 13 13 17 18 18 21 22 19 17 17 15 14 14 12 10 9 10 9 6 5 4 2 2 3 2 2 4 5 4 4 4 3 3 4 3 3 3 2 1 1 2 2 2 3 3 3 4 5 5 6 7 7 8 9 10 10 12 13 14 14 15 17 17 17 19 21 22 22 23 24 24 25 25 25 25 25 24 23 24 24 24 24
18 16 14 15 17 20 19 20 22 20 17 17 17 15 15 14 12 11 9 8 7 5 4 2 1 2 3 4 3 4 5 6 4 4 3 2 2 3 4 3 3 2 2 2 2 2 3 4 4 4 5 7 8 8 9 10 10 11 11 12 13 13 14 15 15 15 15 16 18 18 19 20 20 21 21 22 22 21 21 21 20 21 21 23 23
18 14 14 19 22 21 19 19 19 17 15 16 16 15 15 15 13 12 11 9 6 5 5 3 2 2 1 4 4 4 5 6 5 4 2 3 4 4 3 2 2 3 4 3 3 3 4 5 5 5 6 7 8 7 8 9 10 11 11 11 12 12 13 14 14 14 13 14 14 15 15 16 16 16 16 16 17 16 17 17 17 17 18 19 21
17 13 14 20 23 21 18 18 17 15 16 15 15 16 16 14 12 12 13 11 9 9 8 5 4 3 3 1 4 5 5 7 6 5 4 3 3 3 3 3 3 3 4 4 5 4 4 5 6 7 7 7 7 7 7 8 10 11 11 10 11 12 12 11 11 11 11 11 12 13 13 14 15 15 14 13 13 13 14 15 15 16 16 18 19
15 12 16 21 22 21 19 19 17 16 15 14 14 16 15 14 13 12 12 12 12 11 10 7 4 4 2 3 5 6 5 6 6 6 6 5 3 1 1 2 2 3 3 4 5 5 6 6 7 8 8 8 8 8 8 9 10 10 10 11 11 10 9 8 9 9 9 9 10 11 12 14 15 15 14 13 13 14 15 16 17 18 18 18 18
14 15 18 20 20 20 20 19 18 16 15 14 14 14 15 16 15 14 12 12 13 11 10 8 5 5 5 3 4 4 4 4 5 6 6 5 4 3 2 2 2 2 4 4 5 6 7 8 8 8 9 8 8 9 10 11 11 11 11 11 10 9 7 6 6 9 10 11 11 12 14 15 15 14 15 16 16 18 18 18 19 19 19 19 19
17 19 19 19 20 19 20 20 18 17 15 14 15 15 15 16 17 16 14 13 12 11 10 9 8 7 7 4 3 3 4 3 4 5 5 5 5 4 4 4 4 4 5 6 6 7 8 9 9 9 8 8 8 10 12 12 12 12 12 11 9 7 6 4 5 6 8 10 11 13 15 14 14 15 17 18 19 20 20 20 20 20 19 19 20
20 21 20 19 19 19 20 20 18 17 16 16 17 16 15 16 16 15 14 14 12 12 11 10 9 8 6 5 5 5 4 4 4 5 5 5 6 5 5 6 6 6 7 8 8 9 10 10 9 9 8 7 9 11 14 14 14 13 12 10 7 7 6 4 4 4 5 7 9 11 12 12 13 15 16 16 19 21 21 21 21 21 20 21 22
21 22 21 19 19 20 20 19 18 18 17 17 18 17 16 16 16 15 16 15 14 13 11 9 7 6 6 7 7 7 6 6 6 6 6 7 7 7 6 6 7 8 9 9 9 10 11 11 11 11 9 9 10 13 15 16 16 14 11 9 7 5 3 4 4 4 1 4 5 7 9 10 11 12 14 13 15 19 20 22 22 22 22 22 24
24 23 21 20 20 20 19 19 19 20 19 17 17 17 16 15 15 16 16 16 13 10 9 7 5 5 7 8 9 9 9 8 8 8 8 9 8 8 7 7 8 8 9 10 10 11 13 13 12 11 11 11 11 13 15 15 15 15 13 13 11 4 3 3 5 5 2 5 3 5 8 8 8 9 10 10 11 14 16 18 20 22 22 21 24
25 24 22 20 20 20 20 20 20 20 19 18 16 16 16 15 14 14 14 13 11 8 7 6 5 7 9 9 10 11 11 10 9 9 9 9 9 9 8 8 8 9 10 11 11 12 12 12 11 9 9 9 9 11 12 12 14 13 13 13 12 9 6 6 8 6 8 8 5 7 10 9 8 7 8 7 8 10 11 13 15 18 20 20 21
25 24 22 20 21 22 22 21 20 20 19 18 17 16 16 15 14 14 12 10 9 8 7 6 7 8 9 9 10 10 10 9 9 9 9 10 11 10 9 9 10 10 10 8 7 7 7 7 6 7 7 5 5 6 7 9 11 11 11 10 8 9 11 12 13 12 12 10 9 10 13 14 12 10 10 9 9 10 10 10 13 17 20 20 19
24 22 21 21 22 23 23 22 21 20 19 19 17 17 17 16 15 15 13 11 10 8 6 7 7 7 8 9 10 10 9 8 8 9 10 10 11 11 10 10 9 7 5 3 2 2 3 4 4 6 7 7 7 6 7 7 8 9 9 8 5 7 10 16 20 18 14 13 13 13 14 16 15 13 14 14 14 14 14 13 14 17 20 20 20
22 22 22 22 23 23 23 22 21 20 19 18 16 16 16 16 14 13 12 11 11 8 6 6 5 5 7 9 10 10 8 7 7 8 9 8 8 7 7 6 4 2 1 1 0 1 2 3 4 6 7 8 9 8 8 7 7 6 5 5 4 5 10 15 17 18 20 18 15 15 16 16 15 15 14 14 14 14 13 12 13 15 18 18 18
22 23 23 23 23 22 22 21 20 19 18 17 16 15 15 15 13 12 11 10 9 7 5 4 4 7 9 10 9 7 5 4 4 5 5 5 5 5 5 4 2 2 2 1 1 2 4 5 6 7 8 8 9 9 9 8 7 6 5 4 3 2 5 10 12 16 21 21 19 17 16 15 15 16 15 14 13 11 7 9 13 15 17 18 17
24 24 23 23 22 21 21 20 20 19 18 18 17 15 15 15 14 13 12 10 7 6 5 5 7 9 11 11 7 5 3 4 5 6 5 5 6 5 5 3 2 3 2 2 2 3 5 6 6 7 8 9 9 9 10 10 9 9 9 7 7 7 7 10 13 14 16 21 24 20 17 18 18 18 19 18 14 9 8 12 16 17 17 18 18
24 25 24 23 22 21 21 21 20 20 19 19 17 16 14 14 14 13 11 10 7 6 5 6 8 10 12 11 5 3 4 6 6 6 6 6 5 4 3 3 3 3 2 2 2 4 4 5 5 6 7 8 9 9 9 10 11 11 11 11 11 11 12 13 16 16 16 18 23 25 25 25 23 22 23 21 17 12 10 12 16 17 17 17 18
24 25 24 23 23 22 22 22 22 21 20 18 16 16 14 13 11 10 8 7 6 5 6 7 9 11 12 10 4 6 7 8 7 6 6 5 4 3 3 3 3 3 2 2 2 3 4 4 5 5 6 7 7 8 8 9 10 11 12 12 13 14 15 16 17 17 16 16 18 23 26 28 28 27 26 25 22 18 12 11 15 16 16 17 19
26 26 25 25 25 23 22 22 22 20 19 17 15 14 12 10 8 6 5 5 5 6 6 7 8 8 7 5 6 9 10 9 8 7 6 5 4 4 3 3 3 3 2 2 3 3 4 5 5 6 6 6 7 8 8 9 10 11 10 11 12 13 14 15 16 16 16 18 19 22 24 26 27 28 27 26 24 20 16 15 17 17 18 19 19
Wind_Direction
178 173 173 156 147 148 138 123 114 109 108 110 112 118 121 122 122 121 122 119 114 112 111 112 112 109 107 103 100 100 98 97 95 92 91 89 89 88 88 87 90 89 82 82 76 63 57 56 50 44 44 46 48 52 68 86 96 97 92 89 87 90 94 99 102 100 97 94 96 100 104 104 100 91 85 81 78 78 74 68 67 66 65 63 58
176 171 171 157 150 146 138 125 116 113 112 114 116 121 124 125 124 123 124 120 116 114 113 113 112 109 106 104 102 100 96 94 94 94 93 90 90 88 88 86 87 85 79 79 70 60 52 47 41 36 36 40 45 52 65 80 91 97 96 96 96 97 98 99 99 97 96 96 95 95 94 91 86 80 78 77 75 73 68 64 64 68 70 67 62
179 170 167 156 150 143 138 129 120 117 118 119 120 125 126 126 125 125 125 122 119 116 115 114 112 109 107 105 103 99 95 93 93 93 93 93 92 88 87 84 81 78 78 77 65 54 43 34 31 29 32 39 48 56 67 81 93 99 101 101 101 100 99 99 99 98 98 98 95 91 85 80 80 80 79 78 74 70 67 66 67 71 70 66 63
183 172 166 155 148 142 138 132 124 122 123 124 124 127 128 127 127 128 126 124 120 117 116 114 112 110 108 106 104 100 97 95 92 91 93 94 91 86 84 81 75 72 76 72 58 49 32 23 23 26 34 43 54 63 73 86 95 102 105 103 100 98 98 97 96 98 98 95 92 88 80 74 76 79 79 78 75 73 71 70 68 68 66 62 60
182 175 168 156 148 141 138 134 129 128 128 127 127 129 129 129 130 130 127 124 122 120 118 115 113 111 109 106 104 102 99 97 93 91 91 92 89 84 81 78 74 72 72 63 51 41 21 17 23 30 40 49 60 70 81 91 101 106 106 101 96 93 91 89 89 90 90 87 84 81 70 62 70 77 79 79 77 75 74 73 67 63 60 57 57
180 175 167 156 149 141 138 136 132 132 131 130 129 131 131 132 132 132 128 125 124 121 120 117 115 112 111 108 106 104 101 97 93 91 90 91 90 84 79 76 74 70 66 57 45 30 13 18 30 38 47 55 67 78 89 100 108 108 104 99 95 91 88 84 82 80 75 71 70 68 57 49 61 74 78 79 78 76 73 72 66 60 55 53 53
177 173 165 155 149 141 139 138 136 136 134 132 131 132 133 134 135 133 129 126 125 123 121 119 117 115 112 110 108 106 103 99 95 94 92 92 91 85 77 71 72 70 62 46 29 19 19 29 38 46 53 63 74 85 98 109 112 109 104 100 96 92 89 86 83 79 72 65 60 57 49 43 55 65 69 74 74 75 70 67 62 55 50 48 46
176 170 162 154 149 141 139 139 138 139 137 134 132 134 135 136 136 133 129 126 126 125 123 121 120 118 114 111 109 108 104 99 97 96 94 92 89 83 76 75 74 66 50 29 23 27 37 42 47 55 60 71 81 93 108 117 116 111 107 102 98 94 91 89 86 82 77 69 60 56 50 44 55 60 62 73 73 69 63 58 52 48 44 39 34
177 167 160 156 148 142 140 141 141 141 139 136 135 136 137 138 136 133 130 129 128 126 125 125 123 119 115 112 110 109 105 101 98 96 94 89 83 74 70 73 62 42 32 28 36 46 50 52 57 61 65 77 89 102 115 122 119 113 109 104 101 98 95 92 88 84 76 62 51 49 50 50 58 60 62 72 68 60 56 51 43 40 37 29 24
174 165 160 157 149 143 141 142 144 143 141 138 138 139 139 139 137 134 132 131 129 128 128 127 126 120 115 113 110 107 104 100 96 92 86 80 72 60 51 47 33 23 29 41 54 60 60 63 66 65 69 82 95 108 120 126 122 116 112 109 106 103 97 91 86 80 70 56 37 34 48 54 55 55 58 59 55 53 51 47 39 36 32 21 15
169 164 159 156 149 144 142 144 146 145 143 141 141 141 141 139 137 135 134 132 130 130 131 130 127 121 116 113 109 103 98 93 89 83 73 65 57 44 33 25 24 28 38 55 71 73 71 71 71 71 75 86 100 113 123 127 125 120 115 112 108 103 97 93 89 82 80 70 29 43 48 46 46 43 46 41 37 39 41 41 34 33 28 14 11
163 160 157 156 148 144 144 145 147 147 145 144 145 143 141 138 137 136 135 134 134 134 133 132 129 124 119 115 106 98 92 85 78 71 61 49 41 30 29 30 36 42 52 72 86 84 80 77 75 75 80 89 103 114 123 129 129 124 117 113 108 103 99 97 93 87 91 71 7 50 42 29 38 35 32 22 15 17 23 27 26 24 19 10 7
159 160 159 156 148 145 145 146 148 149 148 147 146 144 142 140 139 138 138 137 137 138 135 133 131 127 121 112 102 95 88 78 66 55 47 39 39 39 44 51 55 57 69 89 94 93 89 83 80 81 84 90 101 113 123 129 129 126 120 114 110 107 105 104 100 93 94 35 344 32 25 18 23 17 18 6 355 357 4 8 14 11 5 2 358
157 162 162 158 151 146 146 147 148 150 151 148 145 144 143 142 141 140 140 140 142 142 137 134 131 126 119 108 98 91 82 71 61 52 49 50 57 58 60 62 66 72 84 99 99 98 94 89 87 86 88 90 96 107 119 128 129 129 124 118 114 113 109 106 103 97 96 349 323 346 358 8 1 353 353 346 339 339 344 350 358 359 354 351 350
166 166 167 163 153 147 146 147 150 152 152 148 146 145 145 144 143 143 143 144 145 143 138 134 129 124 118 106 95 82 72 68 64 62 60 62 66 65 65 63 68 80 96 105 102 99 97 94 92 92 92 92 94 99 110 121 127 129 128 123 120 117 110 105 102 100 111 231 302 318 327 333 340 341 335 333 334 331 330 335 341 346 343 341 343
180 174 172 168 157 149 147 148 151 152 152 149 148 147 147 146 145 145 146 148 146 144 141 135 131 127 121 114 105 91 77 70 65 63 63 63 66 67 69 69 70 81 104 109 103 98 97 98 96 96 96 96 95 96 101 110 121 129 132 130 124 119 113 112 111 113 146 218 287 307 323 324 327 331 327 326 329 328 322 323 329 334 335 335 336
179 178 174 171 161 152 148 148 150 151 152 150 149 148 148 148 148 148 148 148 147 145 140 136 136 132 128 119 109 98 81 69 62 61 61 59 61 65 70 71 70 77 100 112 105 98 96 99 99 99 99 99 99 98 99 104 117 128 135 135 129 125 121 118 111 116 176 245 290 300 317 322 321 322 324 326 325 323 319 319 322 324 326 328 330
171 175 173 172 164 155 152 149 151 154 155 153 151 149 149 150 150 152 151 148 146 141 137 137 137 134 130 114 105 93 74 68 62 59 59 59 60 62 67 72 73 75 91 114 114 95 91 99 100 100 100 102 103 103 104 104 110 120 133 138 136 134 125 115 101 112 188 255 305 310 322 326 322 319 321 324 322 320 316 316 316 316 316 318 322
168 171 172 172 166 158 155 152 154 156 157 156 153 151 150 152 153 155 152 147 143 141 141 139 132 124 117 107 105 92 75 73 63 58 59 61 62 62 67 74 79 78 84 104 127 120 93 92 94 98 100 103 105 106 107 104 103 105 117 131 138 138 123 110 99 122 191 318 320 320 327 328 325 323 324 323 321 321 317 314 312 312 310 312 315
168 170 172 172 166 160 157 153 153 154 158 159 156 153 151 152 153 152 148 143 142 141 139 132 125 116 111 107 105 93 85 85 71 64 62 64 64 61 64 70 77 80 81 89 114 141 127 99 89 91 95 100 104 106 105 100 97 95 99 113 130 136 126 115 111 132 329 326 317 318 322 324 324 325 325 321 320 321 319 315 313 313 311 311 313
168 171 173 171 164 160 156 152 153 154 159 160 159 156 152 153 150 146 141 139 138 134 129 124 123 118 114 112 107 103 99 96 86 74 64 70 68 65 64 64 71 78 80 80 90 118 141 143 106 92 95 96 101 102 100 94 86 77 70 72 23 252 216 197 174 168 341 317 305 309 313 315 317 320 322 318 318 319 319 316 315 315 315 315 316
165 170 171 168 164 161 155 154 155 154 158 159 162 161 155 153 148 145 140 137 136 131 127 121 125 123 112 113 127 136 108 91 94 92 74 71 66 61 61 61 66 73 82 82 81 92 105 129 162 170 144 122 126 110 101 92 83 68 43 18 346 317 311 297 204 187 316 307 301 308 309 311 313 317 320 318 318 317 317 316 316 318 318 319 319
158 169 167 162 165 161 155 157 155 153 159 159 162 162 157 153 149 146 139 138 138 135 130 125 129 123 113 126 135 122 95 81 84 93 80 67 61 52 52 57 59 64 83 94 89 90 89 81 75 148 228 214 212 1 114 102 83 54 24 7 355 341 331 317 264 162 315 310 314 312 308 309 311 314 315 316 316 314 314 315 317 319 320 320 319
160 169 166 164 166 159 154 154 151 148 154 160 160 159 157 153 151 148 143 143 140 139 137 136 139 132 138 139 115 82 81 78 59 58 50 52 48 40 47 47 46 45 57 100 101 98 95 75 55 40 27 28 11 8 355 337 17 21 1 353 354 349 344 339 345 6 334 319 318 312 308 307 308 309 311 315 316 313 312 313 315 318 320 319 318
165 170 169 166 162 158 152 145 141 136 145 157 156 156 156 150 149 149 148 147 143 147 148 148 147 143 147 134 118 117 126 118 35 19 19 25 23 15 38 38 40 38 28 91 102 100 108 88 62 47 37 28 14 12 357 338 340 347 335 326 332 336 343 347 351 353 329 317 312 308 306 305 304 304 308 313 314 312 310 311 312 314 316 317 316
169 171 168 163 160 156 147 140 132 120 131 152 155 157 156 151 152 151 150 149 147 157 159 156 149 143 151 142 144 155 155 160 50 19 0 5 14 4 22 28 26 48 39 76 75 77 109 104 86 71 50 28 11 5 356 340 335 334 323 315 315 315 324 332 328 315 301 299 300 302 302 300 300 300 302 305 307 308 309 311 312 313 314 313 313
171 170 165 160 158 149 137 137 125 112 122 142 149 151 146 141 144 144 147 145 138 159 168 171 167 156 167 173 164 166 160 157 151 127 4 350 351 355 30 32 17 49 54 57 49 32 33 29 48 69 51 356 344 342 334 324 321 318 312 311 310 306 307 304 290 279 277 281 284 286 289 290 293 296 297 298 300 303 306 308 309 310 309 308 308
170 168 160 154 148 139 132 129 121 119 121 125 133 137 131 120 120 127 129 130 139 192 210 208 184 175 185 184 167 170 167 155 166 119 36 2 344 345 20 39 30 45 59 53 50 17 333 314 332 358 338 315 309 305 297 289 286 288 293 297 297 294 288 282 277 276 278 279 281 281 282 285 288 292 294 294 296 299 300 301 303 305 304 304 303
167 165 152 146 138 133 131 130 137 147 135 126 132 133 135 135 128 130 136 177 209 216 233 237 198 188 194 178 175 175 167 73 72 25 26 30 28 18 6 50 49 9 40 279 287 246 238 243 263 279 273 276 279 272 265 261 258 261 271 280 285 291 290 287 287 286 284 284 285 284 282 285 288 291 293 293 294 295 294 296 298 300 301 300 299
162 158 143 140 136 139 144 144 151 161 155 148 146 142 153 161 152 156 176 203 208 217 234 235 208 195 180 165 180 182 199 345 24 21 20 36 48 43 30 68 43 353 266 264 284 265 255 254 247 249 253 261 276 273 263 264 262 261 270 277 277 283 290 289 290 292 291 288 288 288 286 287 289 292 293 293 293 293 293 294 294 294 296 297 297
152 148 143 142 143 154 158 156 160 163 161 158 161 163 167 168 160 161 176 193 201 216 230 223 201 189 175 162 148 146 148 9 51 79 41 46 58 69 58 72 62 237 240 271 294 291 271 267 257 256 262 267 286 288 278 274 271 271 275 278 276 281 289 290 289 290 291 291 291 291 289 288 289 292 293 293 293 292 293 292 291 291 293 293 293
143 146 151 153 157 164 163 166 168 163 160 161 168 174 170 170 170 165 171 179 185 212 233 223 193 170 172 162 112 113 101 77 96 96 74 64 75 75 53 50 65 217 277 300 294 298 266 244 254 266 269 272 285 290 287 282 280 280 278 281 281 284 289 288 287 285 286 287 288 288 288 289 291 294 295 293 293 293 294 293 290 290 292 293 292
139 149 160 170 167 164 166 168 164 159 162 167 168 166 164 171 176 171 168 170 168 183 225 242 204 140 153 157 110 97 80 68 81 89 92 86 83 61 29 29 24 338 342 331 285 284 278 265 264 278 284 292 299 294 290 287 286 286 285 286 287 288 290 287 284 283 285 285 285 288 291 292 294 296 296 295 294 294 297 298 294 293 294 296 294
146 156 167 171 162 162 169 163 159 162 168 173 167 159 163 166 164 162 152 155 166 162 181 232 341 92 133 134 109 97 87 77 82 96 92 73 72 54 36 35 23 352 348 348 317 307 306 301 301 301 303 309 311 304 297 292 290 290 291 292 292 293 293 292 291 290 292 291 291 294 296 299 300 300 300 299 298 298 301 303 302 300 299 298 296
160 163 170 170 164 166 170 162 163 170 171 174 170 162 165 163 154 151 142 146 156 139 142 146 85 36 66 127 122 109 99 95 99 105 76 18 14 32 39 49 38 352 337 334 328 329 324 321 318 309 308 310 309 305 299 296 295 294 292 294 296 298 297 298 298 298 298 297 300 303 304 307 310 311 311 311 309 308 310 311 310 309 307 303 299
173 170 173 170 166 168 169 166 169 170 170 172 167 163 161 154 144 142 144 144 139 130 125 118 101 60 5 45 105 103 96 96 103 111 108 77 34 24 17 17 8 347 336 323 316 313 309 313 311 306 307 309 307 306 304 299 295 293 294 299 303 305 306 310 313 313 311 308 312 314 316 320 322 321 322 323 321 320 320 318 318 317 316 312 307
183 182 177 169 166 169 170 169 168 166 166 162 158 161 156 148 141 143 148 137 127 125 119 112 104 96 53 14 63 89 101 107 117 126 130 129 114 98 41 14 341 321 305 296 299 296 296 300 302 302 301 305 310 306 296 288 288 292 299 304 305 307 313 327 337 340 336 333 335 333 332 331 328 326 327 326 323 325 326 323 321 320 318 317 316
189 193 183 174 171 172 172 169 163 161 160 154 151 155 153 148 143 141 144 132 123 123 121 125 129 118 110 74 70 99 119 130 138 140 145 150 151 166 179 192 220 252 259 266 279 285 290 293 295 297 297 303 303 295 288 286 291 295 299 301 303 315 330 341 351 355 351 347 349 344 340 339 335 333 334 332 328 327 327 326 325 323 322 321 319
190 192 185 178 176 175 173 167 160 157 157 154 150 150 148 143 139 137 137 131 127 131 134 138 139 125 115 127 166 167 153 160 162 158 169 172 172 187 208 222 231 245 258 266 272 279 284 288 293 292 291 295 290 287 287 289 293 294 299 303 309 329 336 333 335 339 333 331 335 334 336 341 342 342 341 338 337 334 332 331 328 325 325 326 324
192 190 182 177 177 177 172 165 158 156 157 153 151 150 144 138 137 137 138 137 136 137 138 144 147 142 150 190 220 220 197 188 188 189 201 201 198 205 219 235 248 258 265 272 277 281 285 289 292 288 283 281 284 288 289 292 293 293 297 297 308 332 321 301 282 268 291 307 321 328 332 335 332 335 334 334 339 338 338 338 336 333 332 332 331
189 187 181 176 178 177 171 165 157 155 155 153 151 148 144 142 143 145 144 143 141 139 144 156 157 153 182 220 234 237 232 221 213 208 212 219 221 223 227 240 253 265 271 276 281 284 288 292 294 292 290 286 289 291 291 294 295 296 293 285 307 336 318 301 263 207 313 319 323 346 355 350 337 331 326 328 338 338 338 339 336 335 333 333 334
183 183 182 177 178 176 170 164 156 154 154 152 150 147 148 150 151 152 148 142 143 149 162 169 167 177 204 228 237 244 248 244 236 227 228 233 236 240 241 245 254 266 276 283 286 286 286 289 290 290 291 293 296 295 296 299 300 303 302 300 313 309 213 244 217 188 345 329 316 346 354 352 346 342 337 341 350 349 345 341 337 334 331 330 331
182 183 185 180 176 174 169 163 156 154 153 150 149 150 154 157 152 150 146 143 151 162 174 177 188 205 220 237 244 248 253 255 252 243 242 243 245 249 251 256 263 272 283 288 289 288 287 291 296 293 291 294 287 288 300 306 304 308 310 313 321 314 285 256 216 224 301 310 300 308 310 306 308 324 334 338 341 341 343 342 343 343 338 333 331
182 182 186 181 175 171 166 161 155 156 156 152 153 156 160 159 150 145 145 152 160 161 168 185 207 220 233 249 252 253 257 260 259 254 253 252 252 255 259 267 272 281 290 292 290 295 300 303 308 304 307 312 290 295 321 319 316 323 327 327 327 328 322 306 298 298 302 310 309 299 296 293 292 295 297 300 304 309 317 327 339 343 337 332 332
182 181 183 181 175 169 162 158 156 159 160 156 157 161 162 162 156 152 157 165 164 162 175 193 209 227 244 253 256 258 261 262 264 266 263 256 255 258 263 268 272 282 285 273 281 314 322 320 328 324 327 338 340 349 358 343 340 343 344 355 1 350 337 318 315 312 308 318 319 310 308 308 310 304 295 292 290 292 300 312 328 334 331 331 333
179 180 182 179 172 165 160 158 157 158 161 161 162 163 164 164 163 164 170 172 163 159 178 196 210 240 258 264 261 255 253 258 263 266 263 255 251 250 249 251 254 260 223 180 302 346 338 343 349 342 338 342 345 348 357 4 8 4 15 57 60 2 329 318 320 315 310 315 319 320 320 320 325 325 317 311 305 303 308 323 341 343 338 334 330
178 182 181 174 168 164 162 160 159 159 160 163 166 166 163 158 160 168 169 168 160 155 173 206 237 262 272 275 271 258 250 250 241 237 238 226 206 200 200 197 180 138 114 93 24 0 353 1 359 349 343 341 342 343 351 3 14 26 48 84 94 30 330 331 341 335 324 320 321 326 331 336 344 344 343 344 340 337 348 7 5 356 347 336 326
179 180 176 170 166 165 163 161 161 161 160 162 164 166 162 156 160 165 158 152 151 152 171 221 250 264 270 272 270 260 235 198 191 190 183 178 173 169 169 156 123 99 78 35 17 7 1 6 2 350 340 339 345 351 356 1 11 29 43 46 37 30 18 10 11 8 352 334 328 334 343 349 358 0 358 1 7 8 14 14 359 347 346 339 326
176 174 169 165 165 164 162 160 158 159 161 164 162 158 158 157 159 160 153 146 148 160 192 234 253 260 267 271 261 200 180 167 167 171 164 163 164 157 148 124 99 91 75 24 16 11 3 4 1 349 345 347 355 1 6 11 19 34 40 38 35 28 21 20 21 22 15 354 341 341 345 347 353 2 3 4 14 20 11 357 344 336 341 337 321
171 169 165 161 160 160 159 157 156 159 160 161 157 150 151 155 156 159 161 162 174 205 232 242 251 256 262 269 238 164 159 157 156 162 161 156 148 141 132 119 102 90 74 16 12 10 5 12 11 5 4 5 10 14 19 24 31 44 43 34 31 24 14 13 17 20 17 6 352 345 346 347 348 354 -0 3 10 16 12 353 338 333 335 331 319
166 165 164 161 159 160 161 159 157 158 156 154 153 151 153 160 165 175 189 198 213 230 236 239 247 249 249 244 190 162 156 155 154 154 154 145 135 131 123 116 98 87 74 9 16 25 30 33 27 25 28 25 28 30 31 34 42 51 44 33 29 19 10 9 11 13 11 5 359 352 350 350 347 349 355 359 4 10 10 359 350 345 341 337 331